[[{"header":{"parameterUnit":"m.s-1","parameterCategory":2,"la1":30.2991,"la2":30.254,"lo1":-89.0895,"lo2":-89.0444,"dy":0.0017,"dx":0.0017,"nx":28,"ny":28,"refTime":"2023-04-17T21:00:00:Z","depth":"0","parameterNumber":2,"parameterNumberName":"U-component_of_CURRENTS"},"data":[0,0,0,0,0,0,0,0,0,0,0,0,0,0,0,0,0,0,0,0,0,0,0,0,0,0,0,0,0,0,0,0,0,0,0,0,0,0,0,0,0,0,0,0,0,0,0,0,0,0,0,0,0,0,0,0,0,0,-0.1916,-0.1917,0,-0.1922,-0.1922,-0.1922,-0.1868,-0.1867,-0.1865,-0.1864,-0.1829,-0.1829,-0.1829,0,0,0,0,0,0,0,0,0,0,0,0,0,-0.1842,-0.1843,-0.1916,-0.1917,-0.1917,-0.1922,-0.1922,-0.1922,-0.1868,-0.1866,-0.1865,-0.1864,-0.1829,-0.1829,-0.1829,0,0,0,0,0,0,0,0,0,0,0,0,0,-0.1859,-0.1843,-0.1916,-0.1894,-0.1893,-0.1922,-0.1922,-0.1921,-0.1868,-0.1866,-0.1865,-0.1863,-0.1829,-0.1829,-0.1829,-0.1862,0,0,-0.1829,-0.1829,0,0,0,0,0,0,0,0,-0.1858,-0.1862,-0.1897,-0.1896,-0.1894,-0.1896,-0.1883,-0.1901,-0.1869,-0.1873,-0.1864,-0.1863,-0.1852,-0.185,-0.1849,-0.186,-0.1859,-0.1829,-0.1829,-0.1829,-0.1829,0,0,0,0,0,0,0,-0.1857,-0.1861,-0.1914,-0.1898,-0.1896,-0.1879,-0.1879,-0.1886,-0.1867,-0.1872,-0.1869,-0.1878,-0.185,-0.1849,-0.1847,-0.1858,-0.1829,-0.1829,-0.1829,-0.1829,-0.1889,-0.189,0,0,0,0,0,0,-0.1869,-0.186,-0.1914,-0.1915,-0.1877,-0.1882,-0.1882,-0.1894,-0.1868,-0.1864,-0.1879,-0.1875,-0.1849,-0.1847,-0.1846,-0.1892,-0.1829,-0.1829,-0.1829,-0.1887,-0.1889,-0.1891,0,0,0,0,0,0,-0.1867,-0.1874,-0.1914,-0.189,-0.1895,-0.1886,-0.1899,-0.1895,-0.1893,-0.1874,-0.1868,-0.1882,-0.1848,-0.1846,-0.1859,-0.1889,-0.1829,-0.1829,-0.1885,-0.1888,-0.189,-0.1978,0,0,0,0,0,0,-0.1865,-0.1873,-0.1889,-0.1892,-0.1897,-0.1945,-0.1901,-0.1896,-0.1903,-0.1898,-0.1875,-0.187,-0.1847,-0.1859,-0.1859,-0.1888,-0.1829,-0.1883,-0.1886,-0.1889,-0.1973,-0.1983,-0.1991,0,0,0,0,0,-0.1862,-0.1895,-0.189,-0.1897,-0.1918,-0.1947,-0.1948,-0.1932,-0.1905,-0.192,-0.1899,-0.187,-0.1877,-0.1861,-0.186,-0.189,-0.1882,-0.1885,-0.1889,-0.1969,-0.1981,-0.1991,0,0,0,0,0,0,-0.1879,-0.1894,-0.1887,-0.1925,-0.194,-0.194,-0.1956,-0.1942,-0.1938,-0.1929,-0.1894,-0.189,-0.1911,-0.1893,-0.1876,-0.1915,-0.1874,-0.1877,-0.1935,-0.1946,-0.1955,-0.1978,-0.1829,0,0,0,0,0,-0.1891,-0.1915,-0.1927,-0.196,-0.1968,-0.1962,-0.1971,-0.1964,-0.1961,-0.1957,-0.1944,-0.1929,-0.1928,-0.1929,-0.1927,-0.1955,-0.1948,-0.1972,-0.1981,-0.1989,-0.2008,-0.2019,-0.2031,-0.1902,-0.1902,-0.1902,0,0,-0.1909,-0.1921,-0.1935,-0.1965,-0.197,-0.2004,-0.1962,-0.1987,-0.2016,-0.1956,-0.1988,-0.1965,-0.1943,-0.1969,-0.1978,-0.1956,-0.2025,-0.1994,-0.2001,-0.2016,-0.2024,-0.2036,-0.2047,-0.1904,-0.1904,-0.1903,0,0,-0.1961,-0.1965,-0.2001,-0.202,-0.2043,-0.2043,-0.2053,-0.2062,-0.2062,-0.209,-0.2053,-0.2053,-0.2052,-0.2047,-0.2041,-0.2104,-0.2073,-0.2097,-0.2164,-0.2174,-0.2185,-0.2194,-0.2213,-0.2223,-0.2101,-0.2102,-0.2102,0,-0.1984,-0.2029,-0.202,-0.2062,-0.2086,-0.2064,-0.2112,-0.212,-0.2134,-0.2152,-0.2112,-0.2118,-0.2093,-0.2128,-0.2141,-0.2126,-0.2127,-0.2123,-0.2187,-0.2196,-0.2204,-0.222,-0.2231,-0.2106,-0.2106,-0.2105,-0.2105,0,-0.2063,-0.2099,-0.2125,-0.2167,-0.2191,-0.2231,-0.2241,-0.2267,-0.2253,-0.2259,-0.2286,-0.2247,-0.2248,-0.2238,-0.2205,-0.2256,-0.2237,-0.2197,-0.216,-0.2222,-0.2236,-0.2245,-0.2113,-0.2111,-0.211,-0.2109,0,0,-0.2106,-0.2169,-0.2175,-0.2211,-0.2248,-0.2277,-0.2333,-0.2379,-0.2424,-0.241,-0.2461,-0.2436,-0.2402,-0.2394,-0.235,-0.2354,-0.2403,-0.2305,-0.2303,-0.2326,-0.2438,-0.2525,-0.2542,-0.2371,-0.2373,-0.2374,-0.2428,0,-0.2169,-0.2263,-0.2276,-0.2361,-0.2408,-0.2413,-0.2469,-0.2507,-0.2523,-0.2569,-0.2528,-0.2547,-0.2465,-0.2458,-0.2453,-0.2417,-0.243,-0.2393,-0.2372,-0.2372,-0.2444,-0.2557,-0.2519,-0.2574,-0.2437,-0.2438,-0.2439,0,-0.2236,-0.229,-0.2382,-0.2459,-0.2479,-0.2524,-0.2604,-0.2649,-0.2705,-0.2717,-0.2723,-0.2691,-0.2693,-0.2605,-0.2584,-0.2563,-0.2518,-0.2481,-0.2481,-0.2541,-0.2477,-0.2487,-0.2595,-0.2477,-0.2453,-0.2451,-0.245,0,-0.2259,-0.236,-0.2431,-0.246,-0.2544,-0.2586,-0.2625,-0.2694,-0.2752,-0.2804,-0.285,-0.2833,-0.2829,-0.277,-0.2692,-0.2638,-0.2681,-0.259,-0.2631,-0.2635,-0.2592,-0.2592,-0.2588,-0.2595,-0.2595,-0.2595,-0.2594,0,-0.2311,-0.2369,-0.2448,-0.2485,-0.2581,-0.2618,-0.2716,-0.2763,-0.2845,-0.2938,-0.2911,-0.2979,-0.2869,-0.2872,-0.2771,-0.2764,-0.2742,-0.2689,-0.2675,-0.2625,-0.2627,-0.2511,-0.2484,-0.2597,-0.2596,-0.2596,-0.2595,0,-0.2313,-0.2372,-0.2457,-0.2553,-0.2591,-0.2648,-0.2764,-0.2848,-0.291,-0.3032,-0.3051,-0.3102,-0.3126,-0.3044,-0.2978,-0.2895,-0.2817,-0.2846,-0.2812,-0.2797,-0.273,-0.2711,-0.2757,-0.2715,-0.2906,-0.2909,-0.2912,0,-0.2323,-0.2364,-0.2483,-0.2553,-0.2596,-0.2691,-0.2778,-0.2865,-0.296,-0.3118,-0.3189,-0.3263,-0.3348,-0.3318,-0.3204,-0.3116,-0.2952,-0.2989,-0.2888,-0.2781,-0.2745,-0.2689,-0.2642,-0.2849,-0.2851,-0.2852,-0.2853,0,-0.232,-0.2355,-0.2415,-0.2558,-0.266,-0.2781,-0.2901,-0.2981,-0.3105,-0.3213,-0.3387,-0.3474,-0.3537,-0.3482,-0.3384,-0.3268,-0.2936,-0.3019,-0.2892,-0.2732,-0.2683,-0.2615,-0.2759,-0.2865,-0.2864,-0.2863,-0.2862,-0.2862,-0.2292,-0.2338,-0.2423,-0.2542,-0.2684,-0.2832,-0.2858,-0.301,-0.3133,-0.3211,-0.3415,-0.3442,-0.3485,-0.3394,-0.3385,-0.3152,-0.3114,-0.2917,-0.291,-0.2867,-0.2822,-0.3038,-0.3144,-0.3145,-0.3145,-0.3145,-0.3145,0,-0.2254,-0.2312,-0.242,-0.2551,-0.2666,-0.2757,-0.2909,-0.2892,-0.2968,-0.3069,-0.3169,-0.3191,-0.3197,-0.3183,-0.3086,-0.2997,-0.2892,-0.2825,-0.2661,-0.2622,-0.278,-0.2768,-0.2817,-0.2817,-0.2817,-0.2817,-0.2817,-0.2817,-0.2242,-0.2292,-0.2337,-0.2469,-0.2567,-0.2607,-0.2642,-0.2648,-0.2649,-0.2629,-0.2596,-0.2683,-0.2689,-0.2892,-0.2821,-0.2737,-0.2592,-0.2573,-0.2525,-0.2536,-0.2539,-0.2542,-0.2518,-0.2514,-0.2513,-0.2275,-0.2274,-0.2272]},{"header":{"parameterUnit":"m.s-1","parameterCategory":2,"la1":30.2991,"la2":30.254,"lo1":-89.0895,"lo2":-89.0444,"dy":0.0017,"dx":0.0017,"nx":28,"ny":28,"refTime":"2023-04-17T21:00:00:Z","depth":"0","parameterNumber":3,"parameterNumberName":"V-component_of_CURRENTS"},"data":[0,0,0,0,0,0,0,0,0,0,0,0,0,0,0,0,0,0,0,0,0,0,0,0,0,0,0,0,0,0,0,0,0,0,0,0,0,0,0,0,0,0,0,0,0,0,0,0,0,0,0,0,0,0,0,0,0,0,-0.0168,-0.0167,0,-0.0104,-0.0103,-0.0102,-0.0059,-0.0058,-0.0058,-0.0058,0.0012,0.0013,0.0015,0,0,0,0,0,0,0,0,0,0,0,0,0,-0.0189,-0.0189,-0.0168,-0.0167,-0.0167,-0.0104,-0.0103,-0.0102,-0.0059,-0.0058,-0.0058,-0.0058,0.0011,0.0013,0.0015,0,0,0,0,0,0,0,0,0,0,0,0,0,-0.0157,-0.0189,-0.0168,-0.0138,-0.0134,-0.0104,-0.0103,-0.0102,-0.0059,-0.0058,-0.0058,-0.0057,0.001,0.0013,0.0015,0.0021,0,0,0.0022,0.0023,0,0,0,0,0,0,0,0,-0.0159,-0.0157,-0.0143,-0.014,-0.0136,-0.0089,-0.0085,-0.006,-0.0059,-0.0087,-0.0058,-0.0057,-0.0022,-0.0017,-0.0005,0.0025,0.0028,0.0023,0.0024,0.0025,0.0026,0,0,0,0,0,0,0,-0.0162,-0.0159,-0.0142,-0.0142,-0.0138,-0.0105,-0.0101,-0.0079,-0.0057,-0.0085,-0.0081,-0.0075,-0.002,-0.0008,-0.0004,0.0029,0.0023,0.0025,0.0026,0.0027,0.0082,0.0082,0,0,0,0,0,0,-0.0174,-0.0161,-0.0144,-0.014,-0.0147,-0.0105,-0.01,-0.0104,-0.0058,-0.005,-0.0075,-0.0073,-0.0012,-0.0006,-0.0001,0.0022,0.0025,0.0027,0.0029,0.0082,0.0082,0.0082,0,0,0,0,0,0,-0.0175,-0.0174,-0.0147,-0.0149,-0.0143,-0.0106,-0.011,-0.0103,-0.0091,-0.0051,-0.0043,-0.007,-0.0012,-0.0004,0.0025,0.0025,0.0028,0.003,0.0082,0.0082,0.0082,0.006,0,0,0,0,0,0,-0.0176,-0.0175,-0.0179,-0.015,-0.0144,-0.0134,-0.011,-0.0102,-0.0087,-0.0084,-0.0044,-0.0037,-0.0011,0.0021,0.0027,0.0028,0.0032,0.0082,0.0082,0.0082,0.006,0.0059,0.0058,0,0,0,0,0,-0.0177,-0.0196,-0.018,-0.0177,-0.0152,-0.0134,-0.0128,-0.0099,-0.0088,-0.0086,-0.0051,-0.0038,0.0026,0.0024,0.0031,0.0032,0.0082,0.0082,0.0082,0.0061,0.0059,0.0058,0,0,0,0,0,0,-0.0213,-0.0192,-0.0174,-0.0186,-0.016,-0.0127,-0.0125,-0.0104,-0.0075,-0.0072,-0.0033,-0.0024,0.0001,0.0018,0.0014,0.0047,0.0054,0.0056,0.0036,0.0034,0.0033,0.0023,0.0034,0,0,0,0,0,-0.0221,-0.0225,-0.0195,-0.0202,-0.0194,-0.0158,-0.0147,-0.0127,-0.0099,-0.0086,-0.0055,-0.0024,0.0006,0.0021,0.0048,0.0066,0.0081,0.0069,0.0068,0.0067,0.0063,0.0087,0.0087,0.0083,0.0083,0.0083,0,0,-0.0237,-0.0225,-0.0226,-0.0208,-0.0188,-0.0179,-0.0151,-0.0141,-0.0125,-0.0084,-0.0058,-0.0028,0.001,0.0036,0.0047,0.005,0.0077,0.0067,0.0066,0.0063,0.0087,0.0088,0.0088,0.0083,0.0083,0.0083,0,0,-0.0274,-0.026,-0.0273,-0.025,-0.0222,-0.02,-0.02,-0.0166,-0.0143,-0.0114,-0.0079,-0.0047,-0.0007,0.0026,0.0046,0.0051,0.0069,0.0054,0.0041,0.0064,0.0065,0.0065,0.0087,0.0089,0.0054,0.0054,0.0054,0,-0.0292,-0.0302,-0.0274,-0.0271,-0.0254,-0.0214,-0.0214,-0.0186,-0.0144,-0.0122,-0.0112,-0.0038,-0.001,0.0033,0.0035,0.0049,0.0062,0.0045,0.0062,0.0063,0.0064,0.0086,0.0089,0.0052,0.0053,0.0053,0.0053,0,-0.0329,-0.0329,-0.0336,-0.0317,-0.0293,-0.0291,-0.0243,-0.0222,-0.0192,-0.0155,-0.0107,-0.006,-0.0016,-0.0004,0.0018,0.0042,0.0049,0.0058,0.0065,0.0063,0.0086,0.009,0.0051,0.0051,0.0052,0.0052,0,0,-0.0388,-0.037,-0.0368,-0.0365,-0.0315,-0.0308,-0.0275,-0.0236,-0.0215,-0.0165,-0.0129,-0.0075,-0.0045,-0.002,0.0014,0.0033,0.0052,0.0042,0.0044,0.006,0.01,0.0198,0.0212,0.0061,0.0062,0.0062,0.0114,0,-0.0425,-0.0447,-0.0411,-0.0414,-0.0421,-0.0356,-0.0328,-0.0278,-0.0229,-0.0184,-0.0119,-0.0077,-0.0051,-0.0031,-0.0004,0.005,0.0061,0.0037,0.0101,0.0103,0.0189,0.022,0.0292,0.0353,0.0117,0.0118,0.0119,0,-0.0463,-0.0475,-0.0495,-0.0468,-0.0462,-0.0446,-0.039,-0.0361,-0.0275,-0.0234,-0.0169,-0.0109,-0.0044,-0.0039,0.0047,0.0031,0.0053,0.0083,0.0086,0.0189,0.021,0.0317,0.0369,0.0498,0.0125,0.0124,0.0124,0,-0.0523,-0.0524,-0.0548,-0.0535,-0.0501,-0.0484,-0.0459,-0.0379,-0.0357,-0.0264,-0.0233,-0.0134,-0.0088,-0.003,0.0064,0.0047,0.0152,0.0138,0.0241,0.0248,0.033,0.0344,0.0514,0.0163,0.0163,0.0162,0.0162,0,-0.0569,-0.0583,-0.0583,-0.0591,-0.0612,-0.0549,-0.0542,-0.0493,-0.0422,-0.0407,-0.0273,-0.0233,-0.009,0.0006,0.0066,0.0198,0.0159,0.0251,0.0276,0.0326,0.0338,0.047,0.0524,0.0164,0.0164,0.0164,0.0163,0,-0.0619,-0.0619,-0.0654,-0.0645,-0.0643,-0.0656,-0.0619,-0.0625,-0.0527,-0.0499,-0.0472,-0.0305,-0.0151,0.0009,0.0128,0.021,0.0419,0.0349,0.041,0.0443,0.0676,0.0724,0.0923,0.0996,0.048,0.0483,0.0485,0,-0.0645,-0.0673,-0.071,-0.0753,-0.0752,-0.0762,-0.0782,-0.07,-0.0698,-0.0558,-0.056,-0.0363,-0.0216,0.0072,0.0279,0.0472,0.0527,0.0607,0.0592,0.0724,0.0794,0.082,0.0867,0.068,0.0684,0.0687,0.069,0,-0.0701,-0.0719,-0.0757,-0.0865,-0.0908,-0.0948,-0.0954,-0.0961,-0.0871,-0.08,-0.068,-0.0525,-0.015,0.0189,0.0507,0.0589,0.0761,0.0678,0.0796,0.0968,0.1023,0.1093,0.0603,0.0718,0.0715,0.0713,0.0711,0.071,-0.0745,-0.0803,-0.0885,-0.0989,-0.1065,-0.1146,-0.1179,-0.1149,-0.1125,-0.0961,-0.0782,-0.0461,0.0078,0.0586,0.0721,0.1056,0.0978,0.1115,0.1159,0.1169,0.127,0.0856,0.1015,0.1014,0.1014,0.1013,0.1012,0,-0.0811,-0.09,-0.1012,-0.115,-0.129,-0.1274,-0.132,-0.1303,-0.128,-0.0993,-0.0773,-0.0115,0.0414,0.0865,0.1377,0.1538,0.1525,0.1583,0.162,0.1638,0.1261,0.1301,0.1554,0.1553,0.1553,0.1553,0.1553,0.1553,-0.0854,-0.0991,-0.1075,-0.1345,-0.1442,-0.1574,-0.1605,-0.1506,-0.1306,-0.0846,-0.0413,-0.0055,0.0592,0.1485,0.1953,0.1958,0.2063,0.2062,0.2093,0.1822,0.178,0.174,0.1792,0.2143,0.2144,0.2455,0.2458,0.2461]}],[{"header":{"parameterUnit":"m.s-1","parameterCategory":2,"la1":30.2991,"la2":30.254,"lo1":-89.0895,"lo2":-89.0444,"dy":0.0017,"dx":0.0017,"nx":28,"ny":28,"refTime":"2023-04-17T21:00:00:Z","depth":"2","parameterNumber":2,"parameterNumberName":"U-component_of_CURRENTS"},"data":[0,0,0,0,0,0,0,0,0,0,0,0,0,0,0,0,0,0,0,0,0,0,0,0,0,0,0,0,0,0,0,0,0,0,0,0,0,0,0,0,0,0,0,0,0,0,0,0,0,0,0,0,0,0,0,0,0,0,-0.0996,-0.0997,0,-0.1046,-0.1046,-0.1047,-0.1019,-0.1018,-0.1017,-0.1015,-0.1026,-0.1028,-0.1029,0,0,0,0,0,0,0,0,0,0,0,0,0,-0.0874,-0.0877,-0.0996,-0.0997,-0.0998,-0.1046,-0.1046,-0.1047,-0.1019,-0.1018,-0.1016,-0.1015,-0.1026,-0.1027,-0.1029,0,0,0,0,0,0,0,0,0,0,0,0,0,-0.0924,-0.0877,-0.0996,-0.0991,-0.0992,-0.1046,-0.1046,-0.1047,-0.1019,-0.1018,-0.1016,-0.1014,-0.1025,-0.1027,-0.1029,-0.1078,0,0,-0.1036,-0.1037,0,0,0,0,0,0,0,0,-0.0921,-0.0928,-0.0991,-0.0992,-0.0992,-0.1026,-0.1007,-0.1056,-0.102,-0.1007,-0.1015,-0.1013,-0.1025,-0.1027,-0.1038,-0.1079,-0.1079,-0.1036,-0.1037,-0.1038,-0.1039,0,0,0,0,0,0,0,-0.0918,-0.0926,-0.1014,-0.0992,-0.0993,-0.0985,-0.099,-0.1016,-0.1023,-0.1008,-0.1006,-0.1016,-0.1025,-0.1036,-0.1038,-0.1079,-0.1036,-0.1038,-0.1039,-0.104,-0.1124,-0.1125,0,0,0,0,0,0,-0.0918,-0.0923,-0.1012,-0.1016,-0.0954,-0.0989,-0.0995,-0.1015,-0.1024,-0.1024,-0.1017,-0.1014,-0.1034,-0.1036,-0.1038,-0.1082,-0.1038,-0.104,-0.1041,-0.1123,-0.1125,-0.1126,0,0,0,0,0,0,-0.0916,-0.0926,-0.1011,-0.0971,-0.0981,-0.0994,-0.1017,-0.1017,-0.1016,-0.1032,-0.103,-0.1013,-0.1032,-0.1036,-0.1052,-0.1082,-0.1041,-0.1043,-0.1122,-0.1124,-0.1125,-0.1178,0,0,0,0,0,0,-0.0912,-0.0926,-0.0936,-0.0972,-0.0984,-0.1049,-0.1019,-0.102,-0.1026,-0.1022,-0.1029,-0.1028,-0.1031,-0.1049,-0.1054,-0.1084,-0.1045,-0.1121,-0.1123,-0.1125,-0.1175,-0.1181,-0.1186,0,0,0,0,0,-0.0908,-0.0938,-0.0937,-0.0947,-0.1,-0.105,-0.1056,-0.1056,-0.1027,-0.1043,-0.1034,-0.1027,-0.1064,-0.1052,-0.1058,-0.1089,-0.112,-0.1122,-0.1124,-0.1172,-0.1179,-0.1186,0,0,0,0,0,0,-0.0898,-0.0939,-0.0938,-0.098,-0.1013,-0.1046,-0.1058,-0.1055,-0.1062,-0.1046,-0.1044,-0.1045,-0.1069,-0.1072,-0.1058,-0.1117,-0.1091,-0.1094,-0.1125,-0.1132,-0.1137,-0.1191,-0.1046,0,0,0,0,0,-0.0901,-0.0927,-0.0968,-0.1001,-0.1014,-0.1032,-0.1047,-0.1051,-0.1065,-0.1065,-0.1068,-0.1071,-0.1089,-0.1101,-0.1114,-0.1154,-0.1175,-0.1176,-0.1181,-0.1186,-0.1233,-0.127,-0.1284,-0.1133,-0.1133,-0.1133,0,0,-0.0907,-0.0932,-0.0948,-0.0999,-0.1016,-0.1068,-0.1036,-0.1065,-0.1111,-0.1068,-0.111,-0.109,-0.1101,-0.1139,-0.1151,-0.1142,-0.1236,-0.1189,-0.1193,-0.1238,-0.1274,-0.1289,-0.1302,-0.1134,-0.1134,-0.1134,0,0,-0.0943,-0.0953,-0.0989,-0.102,-0.1054,-0.1081,-0.1089,-0.1119,-0.113,-0.1167,-0.1145,-0.1153,-0.1171,-0.1201,-0.1214,-0.1265,-0.1259,-0.1246,-0.133,-0.1364,-0.1377,-0.139,-0.1421,-0.1436,-0.1255,-0.1256,-0.1256,0,-0.0948,-0.1005,-0.1009,-0.1055,-0.1092,-0.109,-0.115,-0.1178,-0.121,-0.1242,-0.1184,-0.1229,-0.1219,-0.13,-0.1303,-0.1285,-0.1291,-0.13,-0.1373,-0.1386,-0.1398,-0.1427,-0.1443,-0.1258,-0.1258,-0.1258,-0.1257,0,-0.1018,-0.1061,-0.1085,-0.1149,-0.1189,-0.1237,-0.1281,-0.1318,-0.1312,-0.134,-0.1387,-0.1362,-0.1396,-0.1379,-0.1355,-0.1437,-0.1409,-0.1369,-0.136,-0.1417,-0.1443,-0.1459,-0.1262,-0.1261,-0.126,-0.126,0,0,-0.1043,-0.1121,-0.1128,-0.1176,-0.1241,-0.129,-0.1373,-0.1467,-0.1536,-0.1525,-0.1611,-0.1604,-0.1569,-0.1583,-0.1543,-0.1568,-0.1627,-0.1501,-0.1502,-0.1541,-0.1699,-0.1749,-0.177,-0.1582,-0.1585,-0.1588,-0.1679,0,-0.11,-0.1199,-0.1231,-0.1341,-0.1399,-0.1441,-0.153,-0.1605,-0.1644,-0.1723,-0.1708,-0.1744,-0.1655,-0.1645,-0.1664,-0.1633,-0.1672,-0.1607,-0.1634,-0.1636,-0.168,-0.1792,-0.1473,-0.1535,-0.1694,-0.1697,-0.1699,0,-0.1158,-0.1222,-0.1323,-0.1451,-0.1482,-0.1546,-0.1691,-0.1765,-0.1875,-0.1901,-0.1937,-0.1915,-0.1952,-0.1845,-0.1869,-0.182,-0.1785,-0.1754,-0.1756,-0.181,-0.1717,-0.1506,-0.1557,-0.1724,-0.1722,-0.172,-0.1719,0,-0.1165,-0.1294,-0.1376,-0.1412,-0.1548,-0.1609,-0.1684,-0.1806,-0.1894,-0.1994,-0.2058,-0.2086,-0.2093,-0.206,-0.1998,-0.1922,-0.2033,-0.1916,-0.1948,-0.1949,-0.1697,-0.1673,-0.1976,-0.1976,-0.1975,-0.1975,-0.1975,0,-0.1209,-0.1284,-0.1379,-0.142,-0.1549,-0.162,-0.1755,-0.1847,-0.1979,-0.212,-0.2121,-0.2227,-0.2142,-0.2184,-0.2095,-0.2106,-0.2114,-0.2023,-0.2003,-0.1706,-0.1683,-0.1856,-0.184,-0.1979,-0.1978,-0.1977,-0.1977,0,-0.12,-0.1258,-0.136,-0.1492,-0.1542,-0.1614,-0.1782,-0.1902,-0.2005,-0.219,-0.222,-0.2336,-0.2395,-0.2354,-0.233,-0.2251,-0.2233,-0.2237,-0.1909,-0.1854,-0.2089,-0.2075,-0.2263,-0.2266,-0.2269,-0.2271,-0.2273,0,-0.1215,-0.1249,-0.138,-0.1443,-0.1497,-0.1616,-0.1734,-0.1884,-0.2023,-0.2274,-0.2386,-0.2501,-0.2574,-0.259,-0.2435,-0.2345,-0.2386,-0.2074,-0.1899,-0.2172,-0.2132,-0.2113,-0.2097,-0.1549,-0.1545,-0.1541,-0.1539,0,-0.1232,-0.1247,-0.1309,-0.143,-0.1541,-0.171,-0.1877,-0.1989,-0.2208,-0.2338,-0.2559,-0.2614,-0.2632,-0.2398,-0.2315,-0.2207,-0.2053,-0.2011,-0.2378,-0.1568,-0.1517,-0.1473,-0.1475,-0.1508,-0.1511,-0.1513,-0.1515,-0.1516,-0.1227,-0.1244,-0.1303,-0.1404,-0.1569,-0.1784,-0.1843,-0.2035,-0.2205,-0.2275,-0.2455,-0.2362,-0.2243,-0.1929,-0.1914,-0.189,-0.1968,-0.1778,-0.1778,-0.1784,-0.1728,-0.169,-0.1701,-0.1705,-0.1708,-0.1711,-0.1714,0,-0.123,-0.123,-0.1302,-0.1424,-0.1564,-0.169,-0.1931,-0.1905,-0.2001,-0.2055,-0.2028,-0.1669,-0.1509,-0.1544,-0.1421,-0.1431,-0.1315,-0.1424,-0.1187,-0.1214,-0.1238,-0.1148,-0.0971,-0.097,-0.097,-0.097,0,0,-0.1227,-0.123,-0.1221,-0.1361,-0.1467,-0.1589,-0.1675,-0.1642,-0.1631,-0.1464,-0.1329,-0.1145,-0.1322,-0.1025,-0.1009,-0.1023,-0.1118,-0.0986,-0.1538,-0.1273,-0.1298,-0.1364,-0.1247,0,0,0,0,0]},{"header":{"parameterUnit":"m.s-1","parameterCategory":2,"la1":30.2991,"la2":30.254,"lo1":-89.0895,"lo2":-89.0444,"dy":0.0017,"dx":0.0017,"nx":28,"ny":28,"refTime":"2023-04-17T21:00:00:Z","depth":"2","parameterNumber":3,"parameterNumberName":"V-component_of_CURRENTS"},"data":[0,0,0,0,0,0,0,0,0,0,0,0,0,0,0,0,0,0,0,0,0,0,0,0,0,0,0,0,0,0,0,0,0,0,0,0,0,0,0,0,0,0,0,0,0,0,0,0,0,0,0,0,0,0,0,0,0,0,-0.0121,-0.012,0,-0.0051,-0.005,-0.0049,-0.0037,-0.0038,-0.0039,-0.004,0.0028,0.003,0.0033,0,0,0,0,0,0,0,0,0,0,0,0,0,-0.015,-0.0149,-0.0121,-0.012,-0.0119,-0.0051,-0.005,-0.0049,-0.0037,-0.0038,-0.0039,-0.004,0.0027,0.003,0.0033,0,0,0,0,0,0,0,0,0,0,0,0,0,-0.0112,-0.0149,-0.0121,-0.0108,-0.0106,-0.0052,-0.005,-0.0049,-0.0037,-0.0038,-0.0039,-0.004,0.0026,0.003,0.0033,0.0084,0,0,0.0045,0.0047,0,0,0,0,0,0,0,0,-0.0114,-0.011,-0.011,-0.0108,-0.0107,-0.0057,-0.0036,-0.0006,-0.0036,-0.006,-0.004,-0.0041,-0.0002,0.0004,0.0025,0.0087,0.009,0.0046,0.0048,0.005,0.0051,0,0,0,0,0,0,0,-0.0117,-0.0113,-0.009,-0.0109,-0.0107,-0.0073,-0.007,-0.0029,-0.0022,-0.0058,-0.0057,-0.0054,-0.0001,0.0021,0.0026,0.0091,0.0046,0.0049,0.0051,0.0053,0.0184,0.0185,0,0,0,0,0,0,-0.0135,-0.0115,-0.0092,-0.0088,-0.0117,-0.0073,-0.0068,-0.0069,-0.0022,-0.0017,-0.0053,-0.0054,0.0015,0.0022,0.0029,0.0069,0.005,0.0053,0.0056,0.0183,0.0185,0.0186,0,0,0,0,0,0,-0.0136,-0.0133,-0.0095,-0.0102,-0.0096,-0.0072,-0.0072,-0.0067,-0.0057,-0.0019,-0.0014,-0.0051,0.0014,0.0023,0.0059,0.0072,0.0055,0.0059,0.0182,0.0184,0.0185,0.0164,0,0,0,0,0,0,-0.0137,-0.0134,-0.0137,-0.0104,-0.0096,-0.0068,-0.007,-0.0065,-0.0054,-0.0055,-0.0015,-0.0009,0.0014,0.0053,0.0063,0.0077,0.0062,0.018,0.0183,0.0185,0.0163,0.0164,0.0166,0,0,0,0,0,-0.0138,-0.0142,-0.0138,-0.0135,-0.0103,-0.0068,-0.006,-0.0045,-0.0053,-0.0042,-0.0018,-0.0011,0.0074,0.0058,0.0069,0.0084,0.0179,0.0182,0.0185,0.0162,0.0164,0.0166,0,0,0,0,0,0,-0.0157,-0.0141,-0.0135,-0.0135,-0.0106,-0.0068,-0.0061,-0.0049,-0.0019,-0.0027,0.0005,0.0014,0.0051,0.0075,0.0056,0.013,0.0128,0.0133,0.0107,0.011,0.0111,0.0112,0.0065,0,0,0,0,0,-0.0162,-0.0162,-0.0134,-0.0132,-0.0122,-0.0091,-0.0077,-0.0065,-0.0037,-0.0027,0.0001,0.0035,0.0076,0.0095,0.0133,0.0175,0.0199,0.0194,0.0195,0.0196,0.0207,0.0265,0.0272,0.0194,0.0194,0.0194,0,0,-0.0168,-0.016,-0.016,-0.0135,-0.0115,-0.0091,-0.0086,-0.0069,-0.0044,-0.0022,0.0013,0.0041,0.0089,0.0133,0.0152,0.015,0.0226,0.0199,0.0199,0.021,0.0269,0.0276,0.0283,0.0196,0.0196,0.0196,0,0,-0.018,-0.0175,-0.0177,-0.0151,-0.0127,-0.01,-0.0099,-0.0063,-0.0046,-0.0005,0.0017,0.0056,0.011,0.0155,0.0182,0.022,0.0231,0.0222,0.0231,0.0287,0.0294,0.03,0.0311,0.0319,0.0223,0.0222,0.0222,0,-0.0187,-0.019,-0.0169,-0.0156,-0.014,-0.0108,-0.0096,-0.0058,-0.0013,0.0008,0.0001,0.01,0.013,0.0204,0.0208,0.0225,0.0236,0.0215,0.0288,0.0295,0.0302,0.0312,0.032,0.0222,0.0222,0.0222,0.0222,0,-0.0195,-0.0192,-0.019,-0.0164,-0.0136,-0.0123,-0.0073,-0.0046,-0.0027,0.0014,0.0077,0.013,0.0183,0.0203,0.0213,0.028,0.0263,0.0279,0.0278,0.0308,0.0317,0.0326,0.0221,0.0221,0.0221,0.0221,0,0,-0.0227,-0.0204,-0.0203,-0.0202,-0.0145,-0.0132,-0.0079,-0.0026,-0.0002,0.006,0.0105,0.0183,0.0201,0.0235,0.0263,0.0314,0.0356,0.0305,0.0309,0.0305,0.0441,0.0525,0.0542,0.0375,0.0377,0.0379,0.0416,0,-0.0242,-0.0249,-0.0214,-0.0201,-0.0203,-0.0143,-0.0102,-0.0043,0.001,0.0067,0.0149,0.0196,0.0219,0.0227,0.0291,0.0347,0.0384,0.0342,0.0423,0.0425,0.0488,0.0559,0.0364,0.0391,0.0425,0.0427,0.0428,0,-0.0259,-0.0269,-0.0277,-0.0251,-0.0244,-0.0221,-0.0164,-0.0123,-0.0014,0.0025,0.0111,0.0173,0.0269,0.0271,0.0402,0.0367,0.0395,0.0439,0.0442,0.0541,0.053,0.0375,0.0407,0.0444,0.0442,0.0441,0.044,0,-0.032,-0.0305,-0.0328,-0.0315,-0.0274,-0.0264,-0.024,-0.0148,-0.0124,-0.0009,0.0022,0.0164,0.0207,0.031,0.0402,0.0394,0.0534,0.0537,0.064,0.0642,0.0509,0.05,0.0618,0.0618,0.0618,0.0618,0.0618,0,-0.0352,-0.0363,-0.037,-0.0379,-0.0404,-0.0346,-0.0342,-0.0284,-0.0208,-0.0181,-0.0028,0.0036,0.0216,0.0324,0.0407,0.0566,0.0539,0.0666,0.0683,0.0496,0.0485,0.0561,0.0554,0.0619,0.0619,0.0618,0.0618,0,-0.0397,-0.04,-0.0433,-0.0432,-0.0436,-0.046,-0.044,-0.0443,-0.0348,-0.0304,-0.0277,-0.007,0.0114,0.0288,0.046,0.0564,0.0704,0.0742,0.0501,0.0495,0.0763,0.0755,0.0896,0.09,0.0904,0.0906,0.0909,0,-0.0416,-0.0446,-0.0494,-0.0538,-0.0543,-0.0572,-0.0602,-0.0535,-0.0529,-0.037,-0.0359,-0.0143,0.0056,0.0383,0.0555,0.076,0.0768,0.0705,0.0705,0.0803,0.0804,0.079,0.0777,0.0475,0.0474,0.0472,0.0471,0,-0.0456,-0.0484,-0.0517,-0.0636,-0.0697,-0.0751,-0.0776,-0.0785,-0.0703,-0.0605,-0.0446,-0.0251,0.0094,0.0318,0.0613,0.0696,0.0685,0.0699,0.0847,0.0479,0.0422,0.0418,0.0416,0.0461,0.0462,0.0463,0.0463,0.0464,-0.0489,-0.0533,-0.0619,-0.0725,-0.0834,-0.094,-0.098,-0.0945,-0.0905,-0.0748,-0.0571,-0.0291,-0.0095,0.0339,0.0532,0.0699,0.0736,0.0701,0.0696,0.0695,0.0685,0.0642,0.0715,0.0717,0.0719,0.0721,0.0723,0,-0.0521,-0.0596,-0.0705,-0.0858,-0.1033,-0.1047,-0.1114,-0.1085,-0.1021,-0.0836,-0.0635,-0.039,-0.0125,0.016,0.0402,0.0608,0.0541,0.0633,0.0443,0.0448,0.0454,0.0428,0.0392,0.0394,0.0395,0.0396,0,0,-0.0542,-0.0649,-0.0717,-0.102,-0.115,-0.1327,-0.137,-0.1226,-0.1094,-0.0824,-0.0652,-0.0519,-0.0178,-0.01,0.0096,0.0271,0.0327,0.0283,0.0495,0.0241,0.0247,0.0411,0.0368,0,0,0,0,0]}],[{"header":{"parameterUnit":"m.s-1","parameterCategory":2,"la1":30.2991,"la2":30.254,"lo1":-89.0895,"lo2":-89.0444,"dy":0.0017,"dx":0.0017,"nx":28,"ny":28,"refTime":"2023-04-17T21:00:00:Z","depth":"4","parameterNumber":2,"parameterNumberName":"U-component_of_CURRENTS"},"data":[0,0,0,0,0,0,0,0,0,0,0,0,0,0,0,0,0,0,0,0,0,0,0,0,0,0,0,0,0,0,0,0,0,0,0,0,0,0,0,0,0,0,0,0,0,0,0,0,0,0,0,0,0,0,0,0,0,0,-0.0772,-0.0773,0,-0.0836,-0.0837,-0.0838,-0.0951,-0.0953,-0.0955,-0.0956,-0.1158,-0.1161,-0.1165,0,0,0,0,0,0,0,0,0,0,0,0,0,-0.0772,-0.0771,-0.0772,-0.0773,-0.0773,-0.0836,-0.0837,-0.0838,-0.0951,-0.0953,-0.0955,-0.0957,-0.1156,-0.1161,-0.1165,0,0,0,0,0,0,0,0,0,0,0,0,0,-0.08,-0.0771,-0.0772,-0.0835,-0.0841,-0.0836,-0.0837,-0.0838,-0.095,-0.0953,-0.0956,-0.0958,-0.1155,-0.116,-0.1166,-0.1143,0,0,-0.1182,-0.1184,0,0,0,0,0,0,0,0,-0.0798,-0.08,-0.0825,-0.083,-0.0837,-0.0886,-0.091,-0.0946,-0.0949,-0.0912,-0.0956,-0.096,-0.1075,-0.1087,-0.1095,-0.1152,-0.1161,-0.1183,-0.1186,-0.1188,-0.119,0,0,0,0,0,0,0,-0.0796,-0.0798,-0.0801,-0.0825,-0.0833,-0.0868,-0.0875,-0.0917,-0.0982,-0.0915,-0.0923,-0.0924,-0.1081,-0.109,-0.1101,-0.1164,-0.1182,-0.1187,-0.1191,-0.1193,-0.1445,-0.1448,0,0,0,0,0,0,-0.0778,-0.0796,-0.0799,-0.0802,-0.0821,-0.0865,-0.0873,-0.087,-0.0979,-0.0996,-0.0922,-0.0929,-0.1079,-0.1095,-0.1109,-0.1402,-0.1188,-0.1193,-0.1196,-0.1442,-0.1446,-0.145,0,0,0,0,0,0,-0.0777,-0.0777,-0.0796,-0.0799,-0.0804,-0.0861,-0.0857,-0.0869,-0.0934,-0.0981,-0.1003,-0.098,-0.1082,-0.1101,-0.1206,-0.1399,-0.1196,-0.1201,-0.1438,-0.1443,-0.1448,-0.1787,0,0,0,0,0,0,-0.0777,-0.0776,-0.079,-0.0797,-0.0802,-0.0823,-0.0854,-0.0869,-0.0926,-0.0938,-0.1037,-0.1055,-0.1086,-0.1198,-0.1211,-0.1403,-0.1205,-0.1433,-0.144,-0.1446,-0.1771,-0.1803,-0.183,0,0,0,0,0,-0.0777,-0.0782,-0.079,-0.0791,-0.0811,-0.0823,-0.0831,-0.0883,-0.0926,-0.0954,-0.1038,-0.1055,-0.125,-0.1204,-0.1219,-0.1418,-0.143,-0.1438,-0.1446,-0.1758,-0.1797,-0.1829,0,0,0,0,0,0,-0.079,-0.0793,-0.0803,-0.081,-0.0827,-0.0842,-0.0875,-0.0906,-0.0988,-0.1023,-0.1081,-0.1105,-0.1269,-0.1254,-0.1202,-0.1495,-0.135,-0.1361,-0.1583,-0.1619,-0.1648,-0.1583,-0.1209,0,0,0,0,0,-0.0791,-0.0798,-0.0805,-0.0811,-0.0826,-0.0858,-0.088,-0.0911,-0.0967,-0.1008,-0.1099,-0.119,-0.1298,-0.1385,-0.1432,-0.1587,-0.1484,-0.1719,-0.1749,-0.1775,-0.1725,-0.1737,-0.1764,-0.1475,-0.1475,-0.1475,0,0,-0.0794,-0.0798,-0.0803,-0.0815,-0.0838,-0.0861,-0.0882,-0.0922,-0.0962,-0.1016,-0.1151,-0.1275,-0.1342,-0.1532,-0.1609,-0.1568,-0.1805,-0.1785,-0.1809,-0.1742,-0.1748,-0.1776,-0.1801,-0.148,-0.1479,-0.1479,0,0,-0.079,-0.0812,-0.0818,-0.0833,-0.0864,-0.089,-0.0912,-0.0977,-0.1034,-0.1168,-0.1239,-0.1457,-0.1605,-0.1732,-0.1804,-0.1998,-0.1928,-0.206,-0.2222,-0.224,-0.2264,-0.2283,-0.2205,-0.2214,-0.212,-0.2121,-0.2122,0,-0.0799,-0.0803,-0.0824,-0.0832,-0.0862,-0.0911,-0.094,-0.0981,-0.1087,-0.1146,-0.1245,-0.1583,-0.1697,-0.1931,-0.2069,-0.208,-0.2022,-0.2113,-0.2282,-0.2298,-0.2312,-0.2227,-0.2233,-0.2138,-0.2136,-0.2135,-0.2133,0,-0.0792,-0.0809,-0.0819,-0.0853,-0.089,-0.0923,-0.0975,-0.106,-0.1198,-0.1263,-0.1536,-0.1764,-0.1997,-0.2124,-0.2198,-0.2417,-0.2319,-0.2293,-0.2203,-0.2363,-0.2261,-0.2262,-0.2163,-0.2157,-0.2152,-0.2148,0,0,-0.0772,-0.081,-0.081,-0.0832,-0.0913,-0.0929,-0.1024,-0.1111,-0.1193,-0.1431,-0.1624,-0.1977,-0.2178,-0.2268,-0.2461,-0.255,-0.2703,-0.2525,-0.2518,-0.2461,-0.2677,-0.2345,-0.2311,-0.2735,-0.2736,-0.2738,-0.2573,0,-0.077,-0.078,-0.0818,-0.0862,-0.0893,-0.0977,-0.1042,-0.1129,-0.1306,-0.1498,-0.1779,-0.2056,-0.2203,-0.2486,-0.2597,-0.2656,-0.2715,-0.2742,-0.251,-0.25,-0.2201,-0.2306,-0.2743,-0.2572,-0.2572,-0.2571,-0.2571,0,-0.0766,-0.0772,-0.0809,-0.0872,-0.0893,-0.0957,-0.112,-0.1219,-0.1433,-0.1613,-0.1957,-0.2133,-0.2455,-0.2559,-0.2691,-0.2711,-0.2726,-0.2723,-0.2716,-0.2263,-0.2167,-0.2367,-0.2569,-0.2569,-0.2569,-0.257,-0.257,0,-0.0744,-0.0778,-0.0812,-0.083,-0.0903,-0.0984,-0.1115,-0.1289,-0.1381,-0.1799,-0.1945,-0.2262,-0.2501,-0.258,-0.2603,-0.2712,-0.256,-0.2697,-0.236,-0.2333,-0.2534,-0.2513,-0.2708,-0.2708,-0.2709,-0.2709,-0.271,0,-0.0735,-0.0745,-0.0816,-0.0825,-0.0877,-0.1021,-0.1162,-0.1346,-0.1615,-0.169,-0.2095,-0.2144,-0.2517,-0.2459,-0.2528,-0.2348,-0.2494,-0.234,-0.2273,-0.2679,-0.2678,-0.2533,-0.2515,-0.2703,-0.2704,-0.2705,-0.2706,0,-0.0685,-0.072,-0.0742,-0.0832,-0.0871,-0.0966,-0.1172,-0.1256,-0.1583,-0.1743,-0.1902,-0.2071,-0.2016,-0.213,-0.2162,-0.2179,-0.2092,-0.1965,-0.2254,-0.221,-0.1904,-0.1906,-0.1718,-0.1705,-0.1694,-0.1685,-0.1677,0,-0.0654,-0.0666,-0.0727,-0.073,-0.0787,-0.0933,-0.0986,-0.128,-0.1357,-0.1534,-0.153,-0.1572,-0.1644,-0.1386,-0.1533,-0.1569,-0.158,-0.1598,-0.1941,-0.185,-0.1806,-0.1825,-0.1841,-0.166,-0.1657,-0.1654,-0.1651,0,-0.0587,-0.0619,-0.063,-0.065,-0.0699,-0.0709,-0.0847,-0.0861,-0.1124,-0.1326,-0.1212,-0.1247,-0.1079,-0.1117,-0.1104,-0.1126,-0.1676,-0.1488,-0.152,-0.1844,-0.1777,-0.1748,-0.1777,-0.1613,-0.1619,-0.1622,-0.1624,0,-0.055,-0.0529,-0.0558,-0.0569,-0.0564,-0.0518,-0.0601,-0.0619,-0.0716,-0.096,-0.0762,-0.0818,-0.0888,-0.0844,-0.0746,-0.0819,-0.0976,-0.1171,-0.1224,-0.1268,-0.1211,-0.1066,-0.059,0,0,0,0,0,-0.0512,-0.0483,-0.0474,-0.0451,-0.0423,-0.0424,-0.0466,-0.0543,-0.0677,-0.0581,-0.0753,-0.0598,-0.0601,-0.0516,-0.0533,-0.0574,-0.0971,-0.0597,-0.122,-0.1401,-0.1445,-0.1429,0,0,0,0,0,0,-0.0479,-0.0468,-0.0453,-0.0341,-0.0289,-0.0246,-0.0255,-0.0345,-0.0298,-0.0449,-0.038,-0.0584,-0.0498,-0.0574,-0.051,-0.0527,-0.0927,-0.0643,-0.0644,-0.1376,-0.1416,-0.1452,-0.145,0,0,0,0,0]},{"header":{"parameterUnit":"m.s-1","parameterCategory":2,"la1":30.2991,"la2":30.254,"lo1":-89.0895,"lo2":-89.0444,"dy":0.0017,"dx":0.0017,"nx":28,"ny":28,"refTime":"2023-04-17T21:00:00:Z","depth":"4","parameterNumber":3,"parameterNumberName":"V-component_of_CURRENTS"},"data":[0,0,0,0,0,0,0,0,0,0,0,0,0,0,0,0,0,0,0,0,0,0,0,0,0,0,0,0,0,0,0,0,0,0,0,0,0,0,0,0,0,0,0,0,0,0,0,0,0,0,0,0,0,0,0,0,0,0,-0.0323,-0.0324,0,-0.0389,-0.039,-0.0391,-0.0384,-0.0383,-0.0381,-0.038,-0.0399,-0.0401,-0.0403,0,0,0,0,0,0,0,0,0,0,0,0,0,-0.0238,-0.024,-0.0323,-0.0324,-0.0324,-0.0388,-0.039,-0.0391,-0.0384,-0.0383,-0.0381,-0.0379,-0.0398,-0.0401,-0.0403,0,0,0,0,0,0,0,0,0,0,0,0,0,-0.029,-0.024,-0.0323,-0.0326,-0.0326,-0.0388,-0.039,-0.0391,-0.0385,-0.0382,-0.038,-0.0378,-0.0398,-0.04,-0.0403,-0.0461,0,0,-0.0411,-0.0412,0,0,0,0,0,0,0,0,-0.0287,-0.0294,-0.0325,-0.0326,-0.0326,-0.0373,-0.0367,-0.0411,-0.0385,-0.0367,-0.038,-0.0377,-0.0385,-0.0389,-0.0412,-0.0462,-0.0463,-0.0411,-0.0413,-0.0414,-0.0415,0,0,0,0,0,0,0,-0.0283,-0.0291,-0.0353,-0.0325,-0.0326,-0.0339,-0.0344,-0.0376,-0.0389,-0.0368,-0.0367,-0.0369,-0.0385,-0.0409,-0.0412,-0.0463,-0.0411,-0.0414,-0.0415,-0.0416,-0.0558,-0.056,0,0,0,0,0,0,-0.0268,-0.0288,-0.0351,-0.0355,-0.0297,-0.0342,-0.0348,-0.0363,-0.0389,-0.0391,-0.037,-0.0368,-0.0406,-0.0409,-0.0412,-0.0449,-0.0414,-0.0417,-0.0418,-0.0556,-0.0559,-0.0561,0,0,0,0,0,0,-0.0266,-0.0274,-0.0348,-0.0318,-0.0328,-0.0344,-0.0362,-0.0365,-0.0394,-0.0391,-0.0391,-0.0396,-0.0404,-0.0408,-0.0468,-0.045,-0.0418,-0.042,-0.0554,-0.0557,-0.056,-0.0543,0,0,0,0,0,0,-0.0264,-0.0273,-0.0288,-0.0318,-0.0329,-0.0388,-0.0364,-0.0368,-0.0396,-0.0394,-0.0413,-0.0412,-0.0403,-0.0464,-0.047,-0.0453,-0.0423,-0.0551,-0.0555,-0.0559,-0.0541,-0.0545,-0.0549,0,0,0,0,0,-0.0261,-0.0286,-0.0289,-0.0296,-0.0347,-0.0389,-0.0398,-0.0404,-0.0399,-0.0422,-0.0449,-0.0412,-0.0492,-0.047,-0.0476,-0.0459,-0.0549,-0.0554,-0.0559,-0.0539,-0.0544,-0.0549,0,0,0,0,0,0,-0.0256,-0.0288,-0.0292,-0.0325,-0.0355,-0.0386,-0.0409,-0.042,-0.0463,-0.0464,-0.046,-0.0463,-0.0513,-0.0509,-0.0484,-0.0518,-0.0507,-0.0514,-0.049,-0.0495,-0.0499,-0.049,-0.0425,0,0,0,0,0,-0.0263,-0.0292,-0.0321,-0.035,-0.0366,-0.0395,-0.0416,-0.0426,-0.046,-0.0477,-0.0504,-0.0524,-0.0542,-0.0536,-0.0578,-0.0598,-0.0566,-0.059,-0.0594,-0.0597,-0.06,-0.0529,-0.0524,-0.0577,-0.0577,-0.0577,0,0,-0.027,-0.0291,-0.0308,-0.0352,-0.0377,-0.0432,-0.0404,-0.0445,-0.0496,-0.0474,-0.0567,-0.0567,-0.0566,-0.0595,-0.061,-0.0577,-0.0573,-0.0603,-0.0605,-0.0606,-0.0533,-0.0527,-0.0521,-0.058,-0.058,-0.0579,0,0,-0.0299,-0.0319,-0.0353,-0.039,-0.043,-0.0461,-0.0476,-0.0531,-0.0555,-0.0638,-0.0624,-0.0635,-0.0685,-0.0664,-0.0656,-0.0719,-0.0625,-0.0699,-0.067,-0.0601,-0.0594,-0.0587,-0.0554,-0.0544,-0.0662,-0.0662,-0.0662,0,-0.0305,-0.0359,-0.0371,-0.042,-0.0467,-0.0481,-0.0547,-0.0581,-0.0655,-0.0686,-0.0674,-0.0735,-0.0726,-0.0718,-0.07,-0.0724,-0.0656,-0.0637,-0.0598,-0.0591,-0.0585,-0.0552,-0.0541,-0.0662,-0.0662,-0.0662,-0.0662,0,-0.0364,-0.0415,-0.0443,-0.0519,-0.0572,-0.0629,-0.068,-0.0743,-0.0778,-0.0802,-0.0844,-0.0827,-0.0831,-0.0812,-0.0755,-0.069,-0.0651,-0.0632,-0.0567,-0.0577,-0.0544,-0.0533,-0.0662,-0.0662,-0.0662,-0.0662,0,0,-0.0363,-0.0464,-0.0477,-0.0529,-0.0634,-0.0679,-0.0785,-0.0867,-0.0924,-0.0949,-0.0996,-0.0965,-0.09,-0.0886,-0.0802,-0.0703,-0.0586,-0.0596,-0.0593,-0.0532,-0.041,-0.0472,-0.0467,-0.05,-0.0498,-0.0496,-0.0409,0,-0.0411,-0.051,-0.0567,-0.0688,-0.0752,-0.0826,-0.0914,-0.0986,-0.1047,-0.1098,-0.1033,-0.1034,-0.0936,-0.0876,-0.0771,-0.0638,-0.0552,-0.0612,-0.0439,-0.0436,-0.0461,-0.0456,-0.049,-0.0401,-0.0398,-0.0396,-0.0395,0,-0.0464,-0.0522,-0.064,-0.0768,-0.0803,-0.0894,-0.1045,-0.1122,-0.1188,-0.1207,-0.1182,-0.1114,-0.0976,-0.0893,-0.0663,-0.0672,-0.0533,-0.0438,-0.0432,-0.0487,-0.0478,-0.039,-0.0375,-0.0377,-0.0378,-0.0379,-0.0381,0,-0.0454,-0.0585,-0.0678,-0.0726,-0.0866,-0.0954,-0.1049,-0.1167,-0.1225,-0.1252,-0.1256,-0.1134,-0.1029,-0.0847,-0.0635,-0.059,-0.0412,-0.0355,-0.0317,-0.0321,-0.0293,-0.03,-0.022,-0.022,-0.022,-0.022,-0.022,0,-0.0493,-0.0569,-0.0682,-0.0731,-0.0854,-0.096,-0.1094,-0.1184,-0.1271,-0.1303,-0.1263,-0.1183,-0.0981,-0.0852,-0.0666,-0.0477,-0.0441,-0.032,-0.0296,-0.0296,-0.0305,-0.0286,-0.0294,-0.0217,-0.0218,-0.0218,-0.0219,0,-0.0489,-0.0554,-0.0656,-0.0797,-0.0856,-0.0948,-0.1123,-0.1192,-0.1278,-0.1321,-0.1291,-0.1178,-0.0983,-0.0886,-0.0615,-0.0521,-0.0355,-0.0313,-0.0374,-0.0355,-0.0295,-0.0305,-0.0219,-0.022,-0.0221,-0.0222,-0.0223,0,-0.0505,-0.0546,-0.0685,-0.0747,-0.083,-0.0967,-0.105,-0.1181,-0.1214,-0.1265,-0.1216,-0.111,-0.1014,-0.0737,-0.0595,-0.0419,-0.0375,-0.0325,-0.0248,-0.0307,-0.0291,-0.0299,-0.0307,-0.0225,-0.0225,-0.0226,-0.0226,0,-0.0518,-0.0555,-0.0627,-0.0735,-0.0837,-0.0938,-0.1046,-0.1055,-0.1153,-0.123,-0.1115,-0.1027,-0.0874,-0.0664,-0.0621,-0.0445,-0.0372,-0.0334,-0.0328,-0.0255,-0.0313,-0.0298,-0.0305,-0.023,-0.0229,-0.0229,-0.0229,0,-0.0522,-0.0561,-0.0627,-0.0725,-0.0828,-0.0881,-0.095,-0.0959,-0.1003,-0.1065,-0.0975,-0.0904,-0.0843,-0.0672,-0.0562,-0.0505,-0.0416,-0.0342,-0.0333,-0.0327,-0.0401,-0.0493,-0.0442,0,0,0,0,0,-0.0526,-0.0548,-0.0622,-0.071,-0.0795,-0.0856,-0.0924,-0.0959,-0.1012,-0.0938,-0.0992,-0.0859,-0.0739,-0.0611,-0.0551,-0.0539,-0.0404,-0.0462,-0.0313,-0.0251,-0.0247,-0.0323,0,0,0,0,0,0,-0.0527,-0.0579,-0.0597,-0.0656,-0.0712,-0.0797,-0.0835,-0.0881,-0.0802,-0.0859,-0.0748,-0.0826,-0.0652,-0.0791,-0.0544,-0.0527,-0.0415,-0.0431,-0.0428,-0.0254,-0.025,-0.0246,-0.0323,0,0,0,0,0]}]]